Weather in Nizhnesortymsky

Russia / Khanty-Mansi Autonomous Okrug — Yugra     62°26′34″N   71°45′54″E
temp.,
°C
wind,
m/s
gust,
m/s
humid.,
%
clouds,
%
prec.,
mm/h
press.,
hPa
HPBL,
m
16 october, sat
sat1623:00+6ssw6138978 0.0 1023277
02:00+5ssw6139073 0.0 1021244
05:00+5ssw7139095 0.0 1020271
08:00+5ssw71490100 0.0 1018324
11:00+7ssw81478100 0.0 1017544
14:00+8ssw81372100 0.0 1016643
17:00+8ssw81474100 0.0 1015473
20:00+8ssw81577100 0.0 1014645
17 october, sun
sun1723:00+7sw71381100 0.0 1014487
02:00+5ssw6128976 0.0 1014294
05:00+4ssw6119047 0.0 1014218
08:00+5sw61183100 0.0 1014326
11:00+5ssw5983100 0.0 1014378
14:00+6ssw6981100 0.0 1014529
17:00+5ssw7118468 0.0 1013405
20:00+4ssw71491100 0.0 1012391
18 october, mon
mon1823:00+5ssw81381100 0.1 1011553
02:00+5sw7128295 0.2 1010446
05:00+3ssw7128865 0.2 1010257
08:00+3sw61286100 0.0 1010336
11:00+5wsw7117685 0.0 1011542
14:00+6sw7106964 0.0 1011789
17:00+5ssw6118160 0.0 1010289
20:00+4ssw7148654 0.0 1010348
19 october, tue
tue1923:00+3sw6128917 0.0 1010250
02:00+3sw5109143 0.0 1010179
05:00+3sw51092100 0.0 1010211
08:00+3sw61195100 0.0 1010230
11:00+5sw4987100 0.0 1010356
14:00+6sw488498 0.0 1010464
17:00+5s4893100 0.0 1009188
20:00+6s71296100 0.0 1008380
20 october, wed
wed2023:00+6ssw81486100 0.0 1007457
02:00+6sw71387100 0.0 1006360
05:00+5sw61189100 0.0 1006289
08:00+5sw5991100 0.0 1007335
11:00+5w4675100 0.1 1007393
14:00+3w3478100 0.5 1007335
17:00+1nnw2398100 2.0 1007133
20:00+1ne3399100 1.4 1006126